Change the Weather History Date:

Friday, April 18, 2014

  Actual Average Record
Temperature  
Mean Temperature 41 °F -  
Max Temperature 50 °F 57 °F 82 °F (1987)
Min Temperature 32 °F 36 °F 22 °F (1983)
Degree Days  
Heating Degree Days 24    
Moisture  
Dew Point 27 °F    
Average Humidity 72    
Maximum Humidity 93    
Minimum Humidity 32    
Precipitation  
Precipitation 0.00 in - - ()
Sea Level Pressure  
Sea Level Pressure 30.33 in    
Wind  
Wind Speed 7 mph (NNW)    
Max Wind Speed 10 mph    
Max Gust Speed -    
Visibility 10 miles    
Events      
Averages and records for this station are not official NWS values.
T = Trace of Precipitation, MM = Missing Value Source: NWS Daily Summary

Daily Weather History Graph

Daily Weather History Graph

Search for Another Location

Airport or City:

Trip Planner

Search our weather history database for the weather conditions in past years. The results will help you decide how hot, cold, wet, or windy it might be!

Date:

Astronomy

Apr. 18, 2014 Rise Set
Actual Time 6:05 AM CDT 7:42 PM CDT
Civil Twilight 5:34 AM CDT 8:12 PM CDT
Nautical Twilight 4:57 AM CDT 8:49 PM CDT
Astronomical Twilight 4:18 AM CDT 9:29 PM CDT
Moon 11:32 PM CDT (4/18) 8:22 AM CDT (4/18)
Length of Visible Light 14h 37m
Length of Day
13h 36m
Waning Gibbous, 87% of the Moon is Illuminated
Apr 18
Waning Gibbous
Apr 22
Last Quarter
Apr 29
New
May 6
First Quarter
May 14
Full

Hourly Weather History & Observations

Time (CDT) Temp. Windchill Dew Point Humidity Pressure Visibility Wind Dir Wind Speed Gust Speed Precip Events Conditions
12:15 AM 32.0 °F 25.6 °F 30.2 °F 93% 30.29 in 10.0 mi West 6.9 mph - N/A   Mostly Cloudy
12:35 AM 32.0 °F 26.4 °F 28.4 °F 87% 30.28 in 10.0 mi WNW 5.8 mph - N/A   Scattered Clouds
12:55 AM 32.0 °F 26.4 °F 28.4 °F 87% 30.29 in 10.0 mi NW 5.8 mph - N/A   Scattered Clouds
1:15 AM 32.0 °F 26.4 °F 30.2 °F 93% 30.29 in 10.0 mi WNW 5.8 mph - N/A   Overcast
1:35 AM 32.0 °F 25.6 °F 30.2 °F 93% 30.29 in 10.0 mi WNW 6.9 mph - N/A   Overcast
1:55 AM 33.8 °F 27.7 °F 30.2 °F 87% 30.29 in 10.0 mi NW 6.9 mph - N/A   Overcast
2:15 AM 33.8 °F 27.0 °F 30.2 °F 87% 30.29 in 10.0 mi NW 8.1 mph - N/A   Overcast
2:35 AM 33.8 °F 26.4 °F 30.2 °F 87% 30.29 in 10.0 mi NNW 9.2 mph - N/A   Overcast
2:55 AM 33.8 °F 27.0 °F 28.4 °F 81% 30.29 in 10.0 mi NW 8.1 mph - N/A   Overcast
3:10 AM 33.8 °F 27.0 °F 28.4 °F 81% 30.29 in 10.0 mi NNW 8.1 mph - N/A   Overcast
3:35 AM 33.8 °F 27.7 °F 28.4 °F 81% 30.29 in 10.0 mi NW 6.9 mph - N/A   Overcast
3:55 AM 33.8 °F 27.0 °F 28.4 °F 81% 30.29 in 10.0 mi NW 8.1 mph - N/A   Overcast
4:15 AM 33.8 °F 27.0 °F 28.4 °F 81% 30.30 in 10.0 mi NW 8.1 mph - N/A   Overcast
4:35 AM 33.8 °F 28.6 °F 28.4 °F 81% 30.30 in 10.0 mi NW 5.8 mph - N/A   Overcast
4:55 AM 33.8 °F 27.7 °F 28.4 °F 81% 30.31 in 10.0 mi NW 6.9 mph - N/A   Overcast
5:15 AM 33.8 °F 27.0 °F 28.4 °F 81% 30.31 in 10.0 mi NW 8.1 mph - N/A   Overcast
5:20 AM 33.8 °F 27.0 °F 26.6 °F 75% 30.31 in 10.0 mi NW 8.1 mph - N/A   Mostly Cloudy
5:45 AM 33.8 °F 27.7 °F 26.6 °F 75% 30.32 in 10.0 mi NW 6.9 mph - N/A   Mostly Cloudy
6:45 AM 33.8 °F 27.7 °F 26.6 °F 75% 30.34 in 10.0 mi NNW 6.9 mph - N/A   Mostly Cloudy
7:45 AM 33.8 °F 28.6 °F 24.8 °F 70% 30.36 in 10.0 mi North 5.8 mph - N/A   Mostly Cloudy
8:45 AM 37.4 °F 32.1 °F 26.6 °F 65% 30.36 in 10.0 mi NNW 6.9 mph - N/A   Mostly Cloudy
9:45 AM 39.2 °F 34.2 °F 26.6 °F 61% 30.37 in 10.0 mi NNE 6.9 mph - N/A   Mostly Cloudy
10:45 AM 39.2 °F 33.0 °F 26.6 °F 61% 30.38 in 10.0 mi NNW 9.2 mph - N/A   Mostly Cloudy
11:45 AM 42.8 °F 38.0 °F 26.6 °F 53% 30.38 in 10.0 mi NNW 8.1 mph - N/A   Scattered Clouds
12:45 PM 44.6 °F 42.2 °F 24.8 °F 46% 30.36 in 10.0 mi Variable 4.6 mph - N/A   Scattered Clouds
1:45 PM 46.4 °F 41.5 °F 26.6 °F 46% 30.36 in 10.0 mi North 10.4 mph - N/A   Scattered Clouds
2:45 PM 48.2 °F - 24.8 °F 40% 30.36 in 10.0 mi North 9.2 mph - N/A   Scattered Clouds
3:45 PM - - - N/A% 30.35 in 10.0 mi NW 8.1 mph - N/A   Scattered Clouds
4:45 PM 50.0 °F - 21.2 °F 32% 30.34 in 10.0 mi North 5.8 mph - N/A   Scattered Clouds
6:45 PM 48.2 °F - 24.8 °F 40% 30.35 in 10.0 mi Variable 4.6 mph - N/A   Scattered Clouds
7:45 PM 42.8 °F 37.5 °F 30.2 °F 61% 30.35 in 10.0 mi ESE 9.2 mph - N/A   Scattered Clouds
8:45 PM 39.2 °F 33.0 °F 30.2 °F 70% 30.38 in 10.0 mi ESE 9.2 mph - N/A   Scattered Clouds
10:45 PM 35.6 °F 31.7 °F 26.6 °F 70% 30.39 in 10.0 mi East 4.6 mph - N/A   Clear
11:15 PM 33.8 °F 28.6 °F 26.6 °F 75% 30.38 in 10.0 mi East 5.8 mph - N/A   Clear
11:35 PM 33.8 °F 28.6 °F 24.8 °F 70% 30.39 in 10.0 mi East 5.8 mph - N/A   Clear
11:55 PM 33.8 °F 27.0 °F 24.8 °F 70% 30.38 in 10.0 mi East 8.1 mph - N/A   Clear